GW6891 Weather Reports


Display with metric or nautical units.
time (UTC)temp
F
wind
direction
speed
MPH
gust
MPH
rain 1hr
in
rain 24hr
in
rain mn
in
humidity
%
barometer
mb
20260505014005 81 279 1.0 1.0 0.00 0.00 0.00 65 1017.3
20260505013505 81 295 1.0 1.0 0.00 0.00 0.00 65 1017.3
20260505013004 81 275 0.0 0.0 0.00 0.00 0.00 66 1017.3
20260505012504 80 262 3.0 4.0 0.00 0.00 0.00 66 1017.6
20260505012004 81 291 1.0 1.0 0.00 0.00 0.00 63 1017.6
20260505011504 83 297 0.0 1.0 0.00 0.00 0.00 65 1017.6
20260505011005 82 294 1.0 1.0 0.00 0.00 0.00 64 1017.9
20260505010504 80 266 1.0 1.0 0.00 0.00 0.00 68 1017.9
20260505010005 79 261 0.0 0.0 0.00 0.00 0.00 69 1017.9
20260505005506 79 286 0.0 2.0 0.00 0.00 0.00 70 1017.9
20260505005004 83 274 1.0 1.0 0.00 0.00 0.00 64 1017.9
20260505004504 83 289 0.0 1.0 0.00 0.00 0.00 66 1017.9
20260505004005 80 262 1.0 2.0 0.00 0.00 0.00 69 1017.9
20260505003504 81 288 1.0 1.0 0.00 0.00 0.00 68 1018.3
20260505003005 80 303 0.0 0.0 0.00 0.00 0.00 71 1018.3
20260505002504 78 278 0.0 0.0 0.00 0.00 0.00 75 1019.0
20260505002004 77 285 1.0 1.0 0.00 0.00 0.00 74 1019.0
20260505001504 80 251 1.0 1.0 0.00 0.00 0.00 70 1019.0
20260505001005 78 294 0.0 0.0 0.00 0.00 0.00 73 1019.0
20260505000505 79 255 0.0 0.0 0.00 0.00 0.00 71 1019.0
20260505000005 79 313 1.0 1.0 0.00 0.00 0.00 72 1019.0
20260504235505 81 273 1.0 1.0 0.00 0.00 0.00 70 1019.0
20260504235004 80 277 0.0 0.0 0.00 0.00 0.00 69 1019.0
20260504234505 79 283 1.0 1.0 0.00 0.00 0.00 75 1019.0
20260504234007 79 327 0.0 1.0 0.00 0.00 0.00 76 1019.0
20260504233505 78 296 1.0 1.0 0.00 0.00 0.00 77 1019.0
20260504233004 76 300 2.0 2.0 0.00 0.00 0.00 77 1019.0
20260504232504 75 274 1.0 1.0 0.00 0.00 0.00 81 1019.3
20260504232005 75 296 0.0 1.0 0.00 0.00 0.00 82 1019.3
20260504231505 74 291 0.0 1.0 0.00 0.00 0.00 84 1019.3
20260504231004 74 278 0.0 0.0 0.00 0.00 0.00 86 1019.3
20260504230505 72 296 1.0 1.0 0.00 0.00 0.00 87 1019.3
20260504230005 71 294 1.0 1.0 0.00 0.00 0.00 90 1019.3
20260504225504 69 270 0.0 1.0 0.00 0.00 0.00 93 1019.3
20260504225004 68 267 1.0 1.0 0.00 0.00 0.00 94 1019.3
20260504224504 68 275 0.0 0.0 0.00 0.00 0.00 98 1019.3
20260504224004 67 272 0.0 1.0 0.00 0.00 0.00 99 1019.3
20260504223504 67 265 0.0 0.0 0.00 0.00 0.00 99 1019.3
20260504223006 66 280 0.0 1.0 0.00 0.00 0.00 99 1019.3
20260504222505 66 235 2.0 2.0 0.00 0.00 0.00 99 1019.3
20260504222004 66 272 0.0 1.0 0.00 0.00 0.00 99 1019.3
20260504221504 66 271 0.0 1.0 0.00 0.00 0.00 99 1019.3
20260504221004 65 287 0.0 1.0 0.00 0.00 0.00 99 1019.3
20260504220506 66 270 1.0 1.0 0.00 0.00 0.00 99 1019.3
20260504220004 65 279 0.0 0.0 0.00 0.00 0.00 99 1019.0
20260504215506 65 276 0.0 1.0 0.00 0.00 0.00 99 1019.0
20260504215004 65 268 1.0 2.0 0.00 0.00 0.00 99 1019.0
20260504214504 65 274 0.0 0.0 0.00 0.00 0.00 99 1018.3
20260504214004 64 265 1.0 1.0 0.00 0.00 0.00 99 1018.3
20260504213505 64 268 0.0 0.0 0.00 0.00 0.00 99 1018.3
20260504213004 64 256 0.0 0.0 0.00 0.00 0.00 99 1018.3
20260504212509 64 258 0.0 0.0 0.00 0.00 0.00 99 1019.0
20260504212007 64 258 0.0 0.0 0.00 0.00 0.00 99 1019.0
20260504211504 63 258 0.0 1.0 0.00 0.00 0.00 99 1019.0
20260504211005 64 258 0.0 0.0 0.00 0.00 0.00 99 1019.0
20260504210504 63 258 0.0 0.0 0.00 0.00 0.00 99 1019.0
20260504210004 63 258 0.0 0.0 0.00 0.00 0.00 99 1018.3
20260504205505 62 258 0.0 0.0 0.00 0.00 0.00 99 1018.3
20260504205004 63 258 0.0 0.0 0.00 0.00 0.00 99 1018.3
20260504204504 63 258 0.0 0.0 0.00 0.00 0.00 99 1018.3
20260504204004 62 258 0.0 0.0 0.00 0.00 0.00 99 1018.3
20260504203505 62 258 0.0 0.0 0.00 0.00 0.00 99 1017.9
20260504203004 62 258 0.0 0.0 0.00 0.00 0.00 99 1017.9
20260504202504 62 258 0.0 0.0 0.00 0.00 0.00 99 1017.9
20260504202005 62 259 0.0 0.0 0.00 0.00 0.00 99 1017.9
20260504201505 62 259 0.0 0.0 0.00 0.00 0.00 99 1017.9
20260504201006 62 259 1.0 1.0 0.00 0.00 0.00 99 1017.9
20260504200504 62 259 1.0 1.0 0.00 0.00 0.00 99 1017.9
20260504200004 62 259 0.0 0.0 0.00 0.00 0.00 99 1017.6
20260504195504 63 259 0.0 1.0 0.00 0.00 0.00 99 1017.6
20260504195005 63 259 0.0 0.0 0.00 0.00 0.00 99 1017.6
20260504194504 63 259 0.0 0.0 0.00 0.00 0.00 99 1017.6
20260504194004 63 259 0.0 0.0 0.00 0.00 0.00 99 1017.6
20260504193505 63 259 0.0 0.0 0.00 0.00 0.00 99 1017.3
20260504193004 63 259 0.0 0.0 0.00 0.00 0.00 99 1017.3
20260504192505 63 259 0.0 0.0 0.00 0.00 0.00 99 1017.3
20260504192004 63 259 0.0 0.0 0.00 0.00 0.00 99 1017.3
20260504191504 63 259 2.0 2.0 0.00 0.00 0.00 99 1017.3
20260504191008 62 259 0.0 0.0 0.00 0.00 0.00 99 1017.3
20260504190505 62 259 0.0 0.0 0.00 0.00 0.00 99 1017.3
20260504190004 62 259 0.0 0.0 0.00 0.00 0.00 99 1017.3
20260504185505 62 259 0.0 0.0 0.00 0.00 0.00 99 1017.3
20260504185004 62 259 0.0 0.0 0.00 0.00 0.00 99 1017.3
20260504184505 62 259 0.0 0.0 0.00 0.00 0.00 99 1017.3
20260504184005 62 259 0.0 0.0 0.00 0.00 0.00 99 1017.3
20260504183505 62 259 0.0 0.0 0.00 0.00 0.00 99 1017.3
20260504183005 62 259 0.0 0.0 0.00 0.00 0.00 99 1017.3
20260504182505 62 259 0.0 0.0 0.00 0.00 0.00 99 1017.3
20260504182005 62 259 0.0 0.0 0.05 0.00 0.00 99 1017.3
20260504181508 62 259 0.0 0.0 0.05 0.00 0.00 99 1017.3
20260504181005 62 259 0.0 0.0 0.00 0.00 0.00 99 1017.3
20260504180504 62 259 0.0 0.0 0.00 0.00 0.00 99 1017.3
20260504180005 63 259 0.0 0.0 0.00 0.00 0.00 99 1017.3
20260504175504 63 259 0.0 0.0 0.00 0.00 0.00 99 1017.3
20260504175004 63 259 0.0 0.0 0.00 0.00 0.00 99 1017.3
20260504174505 63 259 0.0 0.0 0.00 0.00 0.00 99 1017.3
20260504174004 63 259 1.0 1.0 0.00 0.00 0.00 99 1017.3
20260504173504 63 259 0.0 0.0 0.00 0.00 0.00 99 1017.3
20260504173005 63 259 0.0 0.0 0.00 0.00 0.00 99 1017.3
20260504172505 64 259 0.0 1.0 0.00 0.00 0.00 99 1017.3
20260504172004 63 259 0.0 0.0 0.00 0.00 0.00 99 1017.3
20260504171505 63 259 0.0 0.0 0.00 0.00 0.00 99 1017.3
20260504171005 63 259 0.0 0.0 0.00 0.00 0.00 99 1017.3
20260504170504 64 259 0.0 0.0 0.00 0.00 0.00 99 1017.3
20260504151005 64 258 0.0 0.0 0.00 0.00 0.00 99 1017.6
20260504150505 64 258 0.0 0.0 0.00 0.00 0.00 99 1017.6
20260504141005 65 259 0.0 0.0 0.00 0.00 0.00 99 1017.9
20260504140504 65 259 0.0 0.0 0.00 0.00 0.00 99 1017.9
20260504130505 66 260 0.0 0.0 0.00 0.00 0.00 99 1019.0
20260504110505 66 268 0.0 1.0 0.00 0.00 0.00 99 1019.3
20260504100504 67 270 1.0 1.0 0.00 0.00 0.00 99 1019.3
20260504082005 71 313 1.0 1.0 0.00 0.00 0.00 88 1017.9
20260504081504 71 325 1.0 1.0 0.00 0.00 0.00 87 1017.9
20260504081005 71 301 0.0 0.0 0.00 0.00 0.00 86 1017.6
20260504080505 71 322 0.0 0.0 0.00 0.00 0.00 86 1017.6
20260504050504 77 188 5.0 6.0 0.00 0.00 0.00 69 1016.9
20260504050004 78 167 3.0 5.0 0.00 0.00 0.00 68 1016.9
20260504045504 78 177 2.0 2.0 0.00 0.00 0.00 68 1016.9
20260504045005 78 280 2.0 3.0 0.00 0.00 0.00 67 1016.9
20260504044504 79 162 1.0 2.0 0.00 0.00 0.00 66 1016.9
20260504044004 80 323 2.0 3.0 0.00 0.00 0.00 64 1016.9
20260504043504 81 334 4.0 6.0 0.00 0.00 0.00 61 1016.6
20260504043006 82 346 3.0 5.0 0.00 0.00 0.00 60 1016.6
20260504042505 81 349 2.0 3.0 0.00 0.00 0.00 61 1016.9
20260504042007 81 243 1.0 1.0 0.00 0.00 0.00 61 1016.9
20260504041504 81 250 1.0 1.0 0.00 0.00 0.00 59 1016.9
20260504041004 82 150 2.0 3.0 0.00 0.00 0.00 58 1016.9
20260504040504 81 177 4.0 5.0 0.00 0.00 0.00 61 1016.9
20260504040004 80 312 1.0 1.0 0.00 0.00 0.00 64 1017.3
20260504035504 78 325 0.0 1.0 0.00 0.00 0.00 65 1017.3
20260504035004 78 270 1.0 2.0 0.00 0.00 0.00 64 1017.3
20260504034505 78 322 1.0 2.0 0.00 0.00 0.00 63 1017.3
20260504034005 79 281 1.0 1.0 0.00 0.00 0.00 62 1017.3
20260504033504 80 191 2.0 2.0 0.00 0.00 0.00 60 1017.3
20260504033004 81 262 1.0 1.0 0.00 0.00 0.00 60 1017.3
20260504032504 79 279 0.0 1.0 0.00 0.00 0.00 61 1017.3
20260504032005 79 305 0.0 0.0 0.00 0.00 0.00 63 1017.3
20260504031510 80 348 5.0 5.0 0.00 0.00 0.00 63 1017.3
20260504031004 81 331 2.0 3.0 0.00 0.00 0.00 60 1017.3
20260504030504 81 312 1.0 3.0 0.00 0.00 0.00 60 1017.3
20260504030005 80 203 2.0 2.0 0.00 0.00 0.00 62 1017.3
20260504025504 79 292 0.0 1.0 0.00 0.00 0.00 64 1017.3
20260504025004 79 315 2.0 2.0 0.00 0.00 0.00 65 1017.3
20260504024504 81 314 2.0 3.0 0.00 0.00 0.00 62 1017.6
20260504024004 81 227 2.0 5.0 0.00 0.00 0.00 60 1017.6
20260504023505 81 81 3.0 4.0 0.00 0.00 0.00 60 1017.6
20260504023005 81 278 8.0 8.0 0.00 0.00 0.00 61 1017.6
20260504022504 83 128 2.0 2.0 0.00 0.00 0.00 60 1017.9
20260504022005 83 144 6.0 8.0 0.00 0.00 0.00 58 1017.9
20260504021504 83 339 2.0 2.0 0.00 0.00 0.00 60 1017.9
20260504021004 83 349 2.0 2.0 0.00 0.00 0.00 62 1018.3
20260504020504 83 256 0.0 1.0 0.00 0.00 0.00 62 1018.3
20260504020004 81 284 0.0 0.0 0.00 0.00 0.00 67 1018.3
20260504015504 77 94 1.0 1.0 0.00 0.00 0.00 71 1018.3
20260504015005 78 277 2.0 2.0 0.00 0.00 0.00 70 1018.3
20260504014504 80 312 1.0 2.0 0.00 0.00 0.00 68 1019.0